CW5709 Weather Reports


Display with metric or nautical units.
time (UTC)temp
F
wind
direction
speed
MPH
gust
MPH
rain 1hr
in
rain 24hr
in
rain mn
in
humidity
%
barometer
mb
20260831231511 85 0.0 0.0 0.00 0.00 0.00 33 1008.2
20260831230017 88 0.0 0.0 0.00 0.00 0.00 28 1008.3
20260831224514 89 0.0 0.0 0.00 0.00 0.00 27 1008.4
20260831223012 90 0.0 0.0 0.00 0.00 0.00 30 1008.4
20260831221514 89 0.0 0.0 0.00 0.00 0.00 30 1008.6
20260831220015 88 0.0 0.0 0.00 0.00 0.00 31 1008.6
20260831214521 87 0.0 0.0 0.00 0.00 0.00 33 1008.6
20260831213016 86 0.0 0.0 0.00 0.00 0.00 33 1008.9
20260831211512 86 0.0 0.0 0.00 0.00 0.00 33 1009.0
20260831210012 84 0.0 0.0 0.00 0.00 0.00 36 1009.1
20260831204520 83 0.0 0.0 0.00 0.00 0.00 38 1009.3
20260831203022 84 0.0 0.0 0.00 0.00 0.00 37 1009.4
20260831201519 82 0.0 0.0 0.00 0.00 0.00 39 1009.5
20260831200012 81 0.0 0.0 0.00 0.00 0.00 42 1010.0
20260831194514 78 0.0 0.0 0.00 0.00 0.00 46 1010.2
20260831193020 75 0.0 0.0 0.00 0.00 0.00 50 1010.4
20260831191520 72 0.0 0.0 0.00 0.00 0.00 52 1010.7
20260831190022 71 0.0 0.0 0.00 0.00 0.00 54 1010.9
20260831184512 70 0.0 0.0 0.00 0.00 0.00 58 1011.0
20260831183019 68 0.0 0.0 0.00 0.00 0.00 60 1011.0
20260831181526 67 0.0 0.0 0.00 0.00 0.00 62 1011.2
20260831180025 66 0.0 0.0 0.00 0.00 0.00 63 1011.2
20260831174521 65 0.0 0.0 0.00 0.00 0.00 65 1011.2
20260831173017 64 0.0 0.0 0.00 0.00 0.00 68 1011.3
20260831171526 63 0.0 0.0 0.00 0.00 0.00 70 1011.6
20260831170031 61 0.0 0.0 0.00 0.00 0.00 72 1011.7
20260831164530 60 0.0 0.0 0.00 0.00 0.00 74 1012.0
20260831163009 58 0.0 0.0 0.00 0.00 0.00 80 1012.1
20260831161520 57 0.0 0.0 0.00 0.00 0.00 83 1012.3
20260831160032 56 0.0 0.0 0.00 0.00 0.00 86 1012.5
20260831154557 54 0.0 0.0 0.00 0.00 0.00 87 1012.6
20260831153030 53 0.0 0.0 0.00 0.00 0.00 86 1012.5
20260831151520 53 0.0 0.0 0.00 0.00 0.00 85 1012.5
20260831150024 52 0.0 0.0 0.00 0.00 0.00 85 1012.4
20260831144531 52 0.0 0.0 0.00 0.00 0.00 84 1012.4
20260831143030 51 0.0 0.0 0.00 0.00 0.00 84 1012.4
20260831141529 51 0.0 0.0 0.00 0.00 0.00 83 1012.3
20260831140028 52 0.0 0.0 0.00 0.00 0.00 83 1012.3
20260831134528 52 0.0 0.0 0.00 0.00 0.00 83 1012.3
20260831133033 52 0.0 0.0 0.00 0.00 0.00 83 1012.4
20260831131531 52 0.0 0.0 0.00 0.00 0.00 82 1012.4
20260831130018 53 0.0 0.0 0.00 0.00 0.00 82 1012.5
20260831124524 53 0.0 0.0 0.00 0.00 0.00 81 1012.5
20260831123028 53 0.0 0.0 0.00 0.00 0.00 81 1012.8
20260831121508 54 0.0 0.0 0.00 0.00 0.00 80 1012.8
20260831120016 54 0.0 0.0 0.00 0.00 0.00 79 1012.8
20260831114542 55 0.0 0.0 0.00 0.00 0.00 79 1012.9
20260831113028 55 0.0 0.0 0.00 0.00 0.00 78 1013.0
20260831111531 56 0.0 0.0 0.00 0.00 0.00 78 1013.0
20260831110012 56 0.0 0.0 0.00 0.00 0.00 77 1013.0
20260831104532 57 0.0 0.0 0.00 0.00 0.00 77 1012.9
20260831103023 57 0.0 0.0 0.00 0.00 0.00 77 1012.7
20260831101536 58 0.0 0.0 0.00 0.00 0.00 76 1012.9
20260831100029 58 0.0 0.0 0.00 0.00 0.00 75 1013.2
20260831094513 58 0.0 0.0 0.00 0.00 0.00 73 1013.4
20260831093019 59 0.0 0.0 0.00 0.00 0.00 73 1013.5
20260831091536 59 0.0 0.0 0.00 0.00 0.00 72 1013.6
20260831090030 59 0.0 0.0 0.00 0.00 0.00 71 1013.7
20260831084534 60 0.0 0.0 0.00 0.00 0.00 70 1013.8
20260831083018 60 0.0 0.0 0.00 0.00 0.00 69 1013.9
20260831081524 61 0.0 0.0 0.00 0.00 0.00 68 1014.0
20260831080031 62 0.0 0.0 0.00 0.00 0.00 66 1014.2
20260831074532 63 0.0 0.0 0.00 0.00 0.00 65 1014.3
20260831073011 63 0.0 0.0 0.00 0.00 0.00 63 1014.3
20260831071516 64 0.0 0.0 0.00 0.00 0.00 62 1014.4
20260831070025 64 0.0 0.0 0.00 0.00 0.00 61 1014.5
20260831064505 65 0.0 0.0 0.00 0.00 0.00 60 1014.5
20260831063010 65 0.0 0.0 0.00 0.00 0.00 59 1014.7
20260831061517 65 0.0 0.0 0.00 0.00 0.00 58 1015.0
20260831060002 66 0.0 0.0 0.00 0.00 0.00 57 1015.1
20260831054509 65 0.0 0.0 0.00 0.00 0.00 57 1015.0
20260831053008 65 0.0 0.0 0.00 0.00 0.00 58 1015.1
20260831051513 64 0.0 0.0 0.00 0.00 0.00 60 1015.3
20260831050021 65 0.0 0.0 0.00 0.00 0.00 61 1015.5
20260831044504 66 0.0 0.0 0.00 0.00 0.00 59 1015.4
20260831043006 67 0.0 0.0 0.00 0.00 0.00 56 1015.4
20260831041510 68 0.0 0.0 0.00 0.00 0.00 55 1015.4
20260831040031 69 0.0 0.0 0.00 0.00 0.00 52 1015.3
20260831034523 70 0.0 0.0 0.00 0.00 0.00 49 1015.2
20260831033004 70 0.0 0.0 0.00 0.00 0.00 48 1015.1
20260831031508 71 0.0 0.0 0.00 0.00 0.00 47 1015.1
20260831030012 72 0.0 0.0 0.00 0.00 0.00 46 1015.1
20260831024516 72 0.0 0.0 0.00 0.00 0.00 45 1015.2
20260831023024 73 0.0 0.0 0.00 0.00 0.00 43 1015.2
20260831021504 73 0.0 0.0 0.00 0.00 0.00 42 1015.2
20260831020010 74 0.0 0.0 0.00 0.00 0.00 41 1015.2
20260831014513 74 0.0 0.0 0.00 0.00 0.00 40 1015.2
20260831013021 75 0.0 0.0 0.00 0.00 0.00 40 1015.3
20260831011534 75 0.0 0.0 0.00 0.00 0.00 39 1015.3
20260831010012 75 0.0 0.0 0.00 0.00 0.00 38 1015.5
20260831004512 75 0.0 0.0 0.00 0.00 0.00 37 1015.7
20260831003020 75 0.0 0.0 0.00 0.00 0.00 35 1016.0
20260831001526 76 0.0 0.0 0.00 0.00 0.00 34 1016.1
20260831000030 76 0.0 0.0 0.00 0.00 0.00 34 1016.2
20260830234510 76 0.0 0.0 0.00 0.00 0.00 33 1016.4
20260830233014 76 0.0 0.0 0.00 0.00 0.00 33 1016.7